Weather History for KOVL - June, 2013

Change the Weather History Date:

Friday, June 14, 2013

  Actual Average (KRWF) Record (KRWF)
Temperature  
Mean Temperature 69 °F -  
Max Temperature 78 °F 79 °F 104 °F (1979)
Min Temperature 60 °F 59 °F 39 °F (1969)
Cooling Degree Days 4    
Growing Degree Days 19 (Base 50)    
Moisture  
Dew Point 58 °F    
Average Humidity 65    
Maximum Humidity 78    
Minimum Humidity 53    
Precipitation  
Precipitation 0.00 in - - ()
Sea Level Pressure  
Sea Level Pressure 29.94 in    
Wind  
Wind Speed 10 mph (SE)    
Max Wind Speed 23 mph    
Max Gust Speed 33 mph    
Visibility 10 miles    
Events Rain    
Averages and records for this station are not official NWS values.
T = Trace of Precipitation, MM = Missing Value Source: NWS Daily Summary

Daily Weather History Graph

Daily Weather History Graph

Search for Another Location

Airport or City:

Trip Planner

Search our weather history database for the weather conditions in past years. The results will help you decide how hot, cold, wet, or windy it might be!

Date:

Astronomy

Jun. 14, 2013 Rise Set
Actual Time 5:33 AM CDT 9:07 PM CDT
Civil Twilight 4:56 AM CDT 9:44 PM CDT
Nautical Twilight 4:07 AM CDT 10:33 PM CDT
Astronomical Twilight 3:03 AM CDT 11:38 PM CDT
Moon 11:22 AM CDT (6/14) 12:02 AM CDT (6/14)
Length of Visible Light 16h 48m
Length of Day
15h 33m
Waxing Crescent, 30% of the Moon is Illuminated
Jun 14
Waxing Crescent
Jun 16
First Quarter
Jun 23
Full
Jun 29
Last Quarter
Jul 8
New

Hourly Weather History & Observations

Time (CDT) Temp. Dew Point Humidity Pressure Visibility Wind Dir Wind Speed Gust Speed Precip Events Conditions
12:13 AM 68.0 °F 55.4 °F 64% 30.05 in 10.0 mi East 5.8 mph - N/A   Clear
12:34 AM 68.0 °F 55.4 °F 64% 30.06 in 10.0 mi ESE 4.6 mph - N/A   Clear
12:54 AM 68.0 °F 55.4 °F 64% 30.06 in 10.0 mi ESE 4.6 mph - N/A   Clear
1:14 AM 66.2 °F 55.4 °F 68% 30.04 in 10.0 mi East 6.9 mph - N/A   Clear
1:34 AM 64.4 °F 53.6 °F 68% 30.05 in 10.0 mi ESE 5.8 mph - N/A   Clear
1:54 AM 64.4 °F 53.6 °F 68% 30.06 in 10.0 mi ESE 5.8 mph - N/A   Clear
2:14 AM 64.4 °F 55.4 °F 73% 30.05 in 10.0 mi ESE 4.6 mph - N/A   Clear
2:34 AM 64.4 °F 55.4 °F 73% 30.05 in 10.0 mi East 4.6 mph - N/A   Clear
2:54 AM 64.4 °F 53.6 °F 68% 30.06 in 10.0 mi SE 4.6 mph - N/A   Clear
3:14 AM 62.6 °F 53.6 °F 72% 30.07 in 10.0 mi SSE 3.5 mph - N/A   Clear
3:33 AM 62.6 °F 53.6 °F 72% 30.04 in 10.0 mi SE 6.9 mph - N/A   Clear
3:54 AM 62.6 °F 53.6 °F 72% 30.01 in 10.0 mi ESE 9.2 mph - N/A   Clear
4:14 AM 62.6 °F 53.6 °F 72% 30.00 in 10.0 mi ESE 10.4 mph - N/A   Clear
4:34 AM 62.6 °F 53.6 °F 72% 30.00 in 10.0 mi ESE 8.1 mph - N/A   Clear
4:54 AM 62.6 °F 53.6 °F 72% 29.98 in 10.0 mi ESE 10.4 mph - N/A   Clear
5:13 AM 62.6 °F 53.6 °F 72% 29.99 in 10.0 mi ESE 3.5 mph - N/A   Clear
5:34 AM 62.6 °F 53.6 °F 72% 30.00 in 10.0 mi ESE 3.5 mph - N/A   Clear
5:54 AM 62.6 °F 53.6 °F 72% 30.00 in 10.0 mi SE 4.6 mph - N/A   Clear
6:13 AM 60.8 °F 53.6 °F 77% 30.00 in 10.0 mi SE 8.1 mph - N/A   Clear
6:34 AM 62.6 °F 53.6 °F 72% 30.01 in 10.0 mi ESE 6.9 mph - N/A   Clear
6:54 AM 62.6 °F 53.6 °F 72% 30.00 in 10.0 mi SE 9.2 mph - N/A   Clear
7:14 AM 62.6 °F 55.4 °F 77% 30.01 in 10.0 mi ESE 6.9 mph - N/A   Clear
7:34 AM 62.6 °F 55.4 °F 77% 30.01 in 10.0 mi SE 8.1 mph - N/A   Scattered Clouds
7:53 AM 64.4 °F 55.4 °F 73% 30.01 in 10.0 mi ESE 9.2 mph - N/A   Mostly Cloudy
8:14 AM 64.4 °F 55.4 °F 73% 30.01 in 10.0 mi ESE 11.5 mph - N/A   Scattered Clouds
8:34 AM 68.0 °F 59.0 °F 73% 30.01 in 10.0 mi SE 11.5 mph - N/A   Scattered Clouds
8:54 AM 68.0 °F 57.2 °F 68% 30.00 in 10.0 mi SE 13.8 mph 18.4 mph N/A   Mostly Cloudy
9:14 AM 69.8 °F 59.0 °F 68% 29.99 in 10.0 mi SE 13.8 mph 18.4 mph N/A   Scattered Clouds
9:34 AM 69.8 °F 55.4 °F 60% 29.99 in 10.0 mi SE 15.0 mph 21.9 mph N/A   Clear
9:54 AM 71.6 °F 59.0 °F 64% 29.99 in 10.0 mi SE 13.8 mph 23.0 mph N/A   Clear
10:14 AM 73.4 °F 59.0 °F 61% 29.99 in 10.0 mi SE 13.8 mph 18.4 mph N/A   Scattered Clouds
10:34 AM 73.4 °F 59.0 °F 61% 29.97 in 10.0 mi SE 16.1 mph 24.2 mph N/A   Overcast
10:54 AM 73.4 °F 57.2 °F 57% 29.97 in 10.0 mi SE 19.6 mph 27.6 mph N/A   Overcast
11:14 AM 73.4 °F 55.4 °F 53% 29.96 in 10.0 mi SE 20.7 mph 24.2 mph N/A   Scattered Clouds
11:33 AM 73.4 °F 55.4 °F 53% 29.95 in 10.0 mi SE 20.7 mph 27.6 mph N/A   Clear
11:54 AM 73.4 °F 55.4 °F 53% 29.94 in 10.0 mi SSE 17.3 mph 25.3 mph N/A   Clear
12:14 PM 77.0 °F 59.0 °F 54% 29.94 in 10.0 mi SE 19.6 mph 27.6 mph N/A   Clear
12:34 PM 73.4 °F 57.2 °F 57% 29.95 in 10.0 mi SSE 16.1 mph - N/A   Clear
12:54 PM 73.4 °F 57.2 °F 57% 29.97 in 10.0 mi SSE 16.1 mph 25.3 mph N/A   Clear
1:14 PM 73.4 °F 59.0 °F 61% 29.97 in 10.0 mi SE 16.1 mph 21.9 mph N/A   Scattered Clouds
1:34 PM 73.4 °F 59.0 °F 61% 29.96 in 10.0 mi SSE 13.8 mph 23.0 mph N/A   Scattered Clouds
1:54 PM 73.4 °F 59.0 °F 61% 29.90 in 10.0 mi SE 16.1 mph 26.5 mph N/A   Clear
2:14 PM 77.0 °F 59.0 °F 54% 29.89 in 10.0 mi ESE 20.7 mph 26.5 mph N/A   Clear
2:33 PM 77.0 °F 59.0 °F 54% 29.89 in 10.0 mi SE 23.0 mph 29.9 mph N/A   Clear
2:54 PM 77.0 °F 59.0 °F 54% 29.89 in 10.0 mi SE 23.0 mph 33.4 mph N/A   Scattered Clouds
3:13 PM 77.0 °F 59.0 °F 54% 29.89 in 10.0 mi SSE 19.6 mph 33.4 mph N/A   Scattered Clouds
3:33 PM 78.8 °F 60.8 °F 54% 29.87 in 10.0 mi SE 21.9 mph 28.8 mph N/A   Scattered Clouds
3:54 PM 78.8 °F 60.8 °F 54% 29.87 in 10.0 mi SE 18.4 mph 29.9 mph N/A   Scattered Clouds
4:13 PM 78.8 °F 60.8 °F 54% 29.87 in 10.0 mi SSE 19.6 mph 28.8 mph N/A   Scattered Clouds
4:34 PM 78.8 °F 60.8 °F 54% 29.85 in 10.0 mi SE 21.9 mph 28.8 mph N/A   Clear
4:54 PM 78.8 °F 60.8 °F 54% 29.85 in 10.0 mi SSE 19.6 mph 27.6 mph N/A   Clear
5:14 PM 78.8 °F 60.8 °F 54% 29.84 in 10.0 mi SSE 20.7 mph 27.6 mph N/A   Clear
5:34 PM 78.8 °F 60.8 °F 54% 29.84 in 10.0 mi SSE 17.3 mph 27.6 mph N/A   Scattered Clouds
5:53 PM 77.0 °F 60.8 °F 57% 29.84 in 10.0 mi SSE 18.4 mph 27.6 mph N/A   Mostly Cloudy
6:14 PM 77.0 °F 59.0 °F 54% 29.85 in 10.0 mi SSE 15.0 mph 25.3 mph N/A   Mostly Cloudy
6:33 PM 77.0 °F 59.0 °F 54% 29.85 in 10.0 mi SSE 15.0 mph 24.2 mph N/A   Overcast
6:54 PM 77.0 °F 59.0 °F 54% 29.85 in 10.0 mi SSE 12.7 mph 26.5 mph N/A   Mostly Cloudy
7:14 PM 77.0 °F 59.0 °F 54% 29.85 in 10.0 mi South 11.5 mph 16.1 mph N/A   Scattered Clouds
7:34 PM 77.0 °F 60.8 °F 57% 29.84 in 10.0 mi SSE 12.7 mph 20.7 mph N/A   Clear
7:54 PM 75.2 °F 59.0 °F 57% 29.84 in 10.0 mi SSE 11.5 mph - N/A   Scattered Clouds
8:14 PM 73.4 °F 59.0 °F 61% 29.84 in 10.0 mi SSE 11.5 mph - N/A   Mostly Cloudy
8:33 PM 73.4 °F 60.8 °F 65% 29.84 in 10.0 mi SSE 12.7 mph 17.3 mph N/A   Overcast
8:54 PM 73.4 °F 60.8 °F 65% 29.84 in 10.0 mi SSE 10.4 mph - N/A   Overcast
9:14 PM 73.4 °F 60.8 °F 65% 29.87 in 10.0 mi SSE 13.8 mph 18.4 mph N/A   Overcast
9:34 PM 69.8 °F 60.8 °F 73% 29.88 in 7.0 mi South 11.5 mph 16.1 mph N/A   Drizzle
9:54 PM 69.8 °F 62.6 °F 78% 29.86 in 7.0 mi SSE 8.1 mph - N/A   Light Drizzle
10:14 PM 69.8 °F 60.8 °F 73% 29.86 in 10.0 mi SSE 9.2 mph - N/A   Overcast
10:34 PM 69.8 °F 62.6 °F 78% 29.86 in 7.0 mi SE 4.6 mph - N/A Rain Rain
10:54 PM 69.8 °F 62.6 °F 78% 29.85 in 10.0 mi ESE 5.8 mph - N/A Rain Light Rain
11:14 PM 69.8 °F 62.6 °F 78% 29.84 in 10.0 mi ESE 5.8 mph - N/A   Overcast
11:33 PM 69.8 °F 62.6 °F 78% 29.85 in 10.0 mi SE 8.1 mph - N/A   Overcast
11:54 PM 69.8 °F 62.6 °F 78% 29.85 in 10.0 mi SE 9.2 mph - N/A   Overcast